Edwards, CA

7:09 PM PST on January 18, 2017 (GMT -0800)
Edwards Air Force Base

Weather History for KEDW - December, 2012

Change the Weather History Date:

Saturday, December 22, 2012

  Actual Average Record
Temperature  
Mean Temperature 40 °F -  
Max Temperature 58 °F 55 °F 75 °F (2005)
Min Temperature 21 °F 27 °F 6 °F (1998)
Degree Days  
Heating Degree Days 26    
Moisture  
Dew Point 25 °F    
Average Humidity 60    
Maximum Humidity 100    
Minimum Humidity 25    
Precipitation  
Precipitation 0.00 in - - ()
Sea Level Pressure  
Sea Level Pressure 30.11 in    
Wind  
Wind Speed 6 mph (SW)    
Max Wind Speed 24 mph    
Max Gust Speed 30 mph    
Visibility 10 miles    
Events      
Averages and records for this station are not official NWS values.
T = Trace of Precipitation, MM = Missing Value Source: NWS Daily Summary

Daily Weather History Graph

Daily Weather History Graph

Search for Another Location

Airport or City:

Trip Planner

Search our weather history database for the weather conditions in past years. The results will help you decide how hot, cold, wet, or windy it might be!

Date:

Astronomy

Dec. 22, 2012 Rise Set
Actual Time 6:56 AM PST 4:44 PM PST
Civil Twilight 6:28 AM PST 5:12 PM PST
Nautical Twilight 5:56 AM PST 5:44 PM PST
Astronomical Twilight 5:25 AM PST 6:15 PM PST
Moon 12:58 PM PST (12/22) 1:53 AM PST (12/22)
Length of Visible Light 10h 44m
Length of Day
9h 48m
Waxing Gibbous, 74% of the Moon is Illuminated
Dec 22
Waxing Gibbous
Dec 28
Full
Jan 4
Last Quarter
Jan 11
New
Jan 18
First Quarter

Hourly Weather History & Observations

Time (PST) Temp. Windchill Dew Point Humidity Pressure Visibility Wind Dir Wind Speed Gust Speed Precip Events Conditions
12:58 AM 22.3 °F - 9.7 °F 58% 30.13 in 10.0 mi Calm Calm - N/A   Overcast
1:58 AM 23.5 °F - 7.9 °F 51% 30.12 in 10.0 mi Calm Calm - N/A   Mostly Cloudy
2:58 AM 24.3 °F 17.3 °F 8.2 °F 51% 30.13 in 10.0 mi NNW 5.8 mph - N/A   Scattered Clouds
3:58 AM 23.0 °F - 9.1 °F 55% 30.11 in 10.0 mi SSE 2.3 mph - N/A   Clear
4:58 AM 23.7 °F 17.8 °F 13.1 °F 64% 30.12 in 10.0 mi West 4.6 mph - N/A   Partly Cloudy
5:58 AM 23.7 °F - 14.7 °F 69% 30.14 in 50.0 mi SSW 2.3 mph - N/A   Mostly Cloudy
6:58 AM 21.6 °F 16.8 °F 13.3 °F 70% 30.17 in 90.0 mi South 3.5 mph - N/A   Mostly Cloudy
7:58 AM 23.5 °F 19.1 °F 13.6 °F 66% 30.16 in 90.0 mi SSW 3.5 mph - N/A   Partly Cloudy
8:58 AM 27.1 °F - 14.5 °F 59% 30.17 in 80.0 mi Calm Calm - N/A   Partly Cloudy
9:58 AM 34.7 °F 29.6 °F 15.6 °F 46% 30.17 in 80.0 mi ESE 5.8 mph - N/A   Partly Cloudy
10:58 AM 39.4 °F 37.2 °F 15.4 °F 38% 30.14 in 70.0 mi SE 3.5 mph - N/A   Partly Cloudy
11:58 AM 46.4 °F 43.5 °F 18.0 °F 32% 30.10 in 60.0 mi South 5.8 mph - N/A   Scattered Clouds
12:58 PM 50.2 °F - 18.5 °F 29% 30.06 in 70.0 mi South 2.3 mph - N/A   Mostly Cloudy
1:31 PM 57.2 °F - 21.2 °F 25% 30.02 in 70.0 mi SW 18.4 mph 23.0 mph N/A   Mostly Cloudy
1:57 PM 57.2 °F - 24.8 °F 29% 30.01 in 50.0 mi SW 23.0 mph 29.9 mph N/A   Mostly Cloudy
1:58 PM 58.1 °F - 24.3 °F 27% 30.03 in 50.0 mi SW 24.2 mph 29.9 mph N/A   Mostly Cloudy
2:58 PM 56.1 °F - 29.1 °F 36% 30.05 in 40.0 mi WSW 19.6 mph 28.8 mph N/A   Mostly Cloudy
3:58 PM 54.3 °F - 34.0 °F 46% 30.08 in 30.0 mi SW 12.7 mph 25.3 mph N/A   Mostly Cloudy
4:58 PM 49.5 °F - 37.8 °F 64% 30.09 in 30.0 mi WSW 12.7 mph - N/A   Mostly Cloudy
5:58 PM 45.7 °F 39.1 °F 37.0 °F 72% 30.10 in 40.0 mi SW 15.0 mph - N/A   Mostly Cloudy
6:58 PM 45.0 °F 39.3 °F 41.5 °F 88% 30.12 in 10.0 mi WSW 11.5 mph - N/A   Clear
7:58 PM 44.2 °F 39.7 °F 43.7 °F 98% 30.13 in 10.0 mi WSW 8.1 mph - N/A   Clear
8:58 PM 45.9 °F 39.7 °F 45.1 °F 97% 30.13 in 10.0 mi WSW 13.8 mph - N/A   Clear
9:58 PM 44.8 °F 39.4 °F 44.4 °F 99% 30.14 in 10.0 mi WSW 10.4 mph - N/A   Clear
10:58 PM 43.7 °F 38.6 °F 43.7 °F 100% 30.13 in 10.0 mi WSW 9.2 mph - N/A   Partly Cloudy
11:58 PM 42.1 °F 37.1 °F 42.1 °F 100% 30.12 in 10.0 mi West 8.1 mph - N/A   Clear